[[{"header":{"parameterUnit":"m.s-1","parameterCategory":1,"la1":30.2991,"la2":30.254,"lo1":-89.0895,"lo2":-89.0444,"dy":0.0017,"dx":0.0017,"nx":28,"ny":28,"refTime":"2025-04-08T09:00:00:Z","depth":0,"parameterNumber":2,"parameterNumberName":"U-component_of_WINDS"},"data":[0,0,0,0,0,0,0,0,0,0,0,0,0,0,0,0,0,0,0,0,0,0,0,0,0,0,0,0,0,0,0,0,0,0,0,0,0,0,0,0,0,0,0,0,0,0,0,0,0,0,0,0,0,0,0,0,0,0,0.0295,0.0294,0,0.022,0.022,0.0219,0.0237,0.0238,0.0239,0.0241,0.0159,0.0155,0.0152,0,0,0,0,0,0,0,0,0,0,0,0,0,0.0448,0.0445,0.0295,0.0294,0.0293,0.0221,0.022,0.0219,0.0236,0.0238,0.024,0.0241,0.016,0.0156,0.0152,0,0,0,0,0,0,0,0,0,0,0,0,0,0.0378,0.0444,0.0295,0.0293,0.0292,0.0221,0.022,0.0218,0.0236,0.0238,0.024,0.0242,0.0161,0.0156,0.0151,0.0075,0,0,0.0135,0.0133,0,0,0,0,0,0,0,0,0.0382,0.0372,0.0295,0.0293,0.0292,0.024,0.0244,0.017,0.0235,0.0257,0.0241,0.0243,0.0184,0.0177,0.0158,0.0071,0.0068,0.0134,0.0131,0.0129,0.0127,0,0,0,0,0,0,0,0.0387,0.0376,0.0265,0.0293,0.0292,0.0295,0.0287,0.023,0.0209,0.0255,0.0257,0.0248,0.0184,0.0163,0.0156,0.0066,0.0135,0.013,0.0127,0.0125,-0.0087,-0.0089,0,0,0,0,0,0,0.0393,0.038,0.0268,0.0263,0.0344,0.029,0.0282,0.0255,0.021,0.0205,0.0246,0.0249,0.0171,0.0162,0.0153,0.006,0.0129,0.0124,0.0121,-0.0085,-0.0088,-0.009,0,0,0,0,0,0,0.0397,0.0383,0.0271,0.0322,0.0308,0.0285,0.0254,0.0252,0.0231,0.0203,0.0199,0.0229,0.0172,0.0161,0.0095,0.0058,0.0122,0.0117,-0.0082,-0.0086,-0.0089,-0.0125,0,0,0,0,0,0,0.0401,0.0384,0.0356,0.0321,0.0305,0.0214,0.0252,0.0249,0.0223,0.0226,0.0186,0.0181,0.0173,0.0102,0.0089,0.0052,0.0113,-0.0079,-0.0083,-0.0088,-0.0121,-0.013,-0.0137,0,0,0,0,0,0.0406,0.0347,0.0354,0.0341,0.0269,0.0212,0.0203,0.0197,0.022,0.019,0.0172,0.0182,0.0065,0.0095,0.0081,0.0041,-0.0076,-0.0082,-0.0087,-0.0118,-0.0128,-0.0137,0,0,0,0,0,0,0.0376,0.0343,0.035,0.0279,0.0249,0.0215,0.0178,0.0185,0.0146,0.0151,0.0143,0.0134,0.0066,0.0047,0.0082,-0.0035,-0.0003,-0.0011,-0.0021,-0.0031,-0.0039,-0.0034,0.0108,0,0,0,0,0,0.0362,0.032,0.0292,0.0232,0.0217,0.02,0.0175,0.0173,0.0141,0.0127,0.0104,0.0071,0.0026,-0.0003,-0.0045,-0.0123,-0.0132,-0.0157,-0.0165,-0.0172,-0.018,-0.0223,-0.0235,-0.0108,-0.0108,-0.0108,0,0,0.033,0.0307,0.0281,0.0225,0.0202,0.0157,0.0189,0.014,0.0106,0.0119,0.0055,0.0038,-0.0,-0.0072,-0.0105,-0.009,-0.0217,-0.0179,-0.0184,-0.0189,-0.023,-0.0242,-0.0253,-0.0112,-0.0111,-0.0111,0,0,0.025,0.0229,0.0176,0.0153,0.0117,0.0107,0.0094,0.0061,0.005,-0.0014,-0.0005,-0.0046,-0.0122,-0.0149,-0.0173,-0.0261,-0.0254,-0.0275,-0.0319,-0.0361,-0.0371,-0.038,-0.0413,-0.0424,-0.0283,-0.0283,-0.0283,0,0.0215,0.0149,0.0147,0.0098,0.0073,0.0086,0.0031,0.0008,-0.0041,-0.0059,-0.004,-0.0135,-0.016,-0.0238,-0.026,-0.0279,-0.0295,-0.0272,-0.0369,-0.0378,-0.0386,-0.0418,-0.043,-0.0285,-0.0285,-0.0285,-0.0284,0,0.0107,0.0062,0.0023,-0.0022,-0.0051,-0.0103,-0.0114,-0.0143,-0.0142,-0.0155,-0.022,-0.0248,-0.0296,-0.0314,-0.0315,-0.0393,-0.0383,-0.0366,-0.0335,-0.04,-0.043,-0.0442,-0.0289,-0.0288,-0.0287,-0.0286,0,0,0.0003,-0.004,-0.0054,-0.0074,-0.0111,-0.0148,-0.0199,-0.0244,-0.027,-0.0303,-0.0347,-0.0411,-0.0395,-0.0422,-0.0425,-0.0461,-0.0531,-0.0441,-0.0442,-0.0458,-0.0621,-0.0634,-0.0648,-0.0525,-0.0527,-0.0529,-0.0618,0,-0.0082,-0.017,-0.0173,-0.0255,-0.0298,-0.0285,-0.033,-0.0358,-0.0371,-0.041,-0.0425,-0.047,-0.0446,-0.0462,-0.0497,-0.0515,-0.0564,-0.0508,-0.0569,-0.0571,-0.0562,-0.0664,-0.0678,-0.0761,-0.063,-0.0632,-0.0633,0,-0.0193,-0.0228,-0.0313,-0.0343,-0.0362,-0.0402,-0.0443,-0.048,-0.0512,-0.0518,-0.0547,-0.0545,-0.0598,-0.0562,-0.0637,-0.0599,-0.0624,-0.0636,-0.064,-0.0647,-0.0608,-0.0676,-0.0787,-0.0801,-0.0651,-0.065,-0.0648,0,-0.0262,-0.033,-0.039,-0.0407,-0.0444,-0.0473,-0.0489,-0.0519,-0.0546,-0.0582,-0.0599,-0.0642,-0.0666,-0.0699,-0.0709,-0.0681,-0.0784,-0.0749,-0.0793,-0.0793,-0.0817,-0.0816,-0.0936,-0.0829,-0.0829,-0.0829,-0.0829,0,-0.0358,-0.0412,-0.0422,-0.0459,-0.0518,-0.0521,-0.058,-0.0595,-0.0621,-0.0662,-0.0654,-0.0693,-0.0701,-0.0742,-0.075,-0.0811,-0.0822,-0.083,-0.0832,-0.0832,-0.0831,-0.085,-0.0845,-0.0832,-0.0831,-0.0831,-0.083,0,-0.0447,-0.0456,-0.052,-0.0548,-0.0557,-0.06,-0.0625,-0.0661,-0.0671,-0.0723,-0.0736,-0.0753,-0.0801,-0.0812,-0.0869,-0.0874,-0.0948,-0.0943,-0.0936,-0.0937,-0.0981,-0.0977,-0.1119,-0.1138,-0.1017,-0.1018,-0.1019,0,-0.0509,-0.0549,-0.0581,-0.0607,-0.0624,-0.0666,-0.0693,-0.0696,-0.0725,-0.0763,-0.0795,-0.0841,-0.0878,-0.0955,-0.0974,-0.1018,-0.1015,-0.1062,-0.1022,-0.1021,-0.1018,-0.1016,-0.1021,-0.107,-0.1072,-0.1073,-0.1073,0,-0.0618,-0.062,-0.0657,-0.0696,-0.0728,-0.0759,-0.0789,-0.0811,-0.0819,-0.0851,-0.0898,-0.0927,-0.0984,-0.103,-0.1074,-0.1093,-0.1086,-0.1085,-0.1098,-0.11,-0.1095,-0.11,-0.0959,-0.1083,-0.1082,-0.1081,-0.1081,-0.108,-0.0697,-0.0732,-0.076,-0.0802,-0.0824,-0.0851,-0.0887,-0.0901,-0.094,-0.0985,-0.0985,-0.1037,-0.1068,-0.1125,-0.1146,-0.1188,-0.1174,-0.1192,-0.1197,-0.1202,-0.1207,-0.1086,-0.1196,-0.1195,-0.1195,-0.1195,-0.1195,0,-0.0807,-0.0823,-0.0862,-0.0903,-0.0936,-0.0922,-0.0955,-0.0984,-0.1029,-0.1057,-0.1093,-0.1148,-0.1192,-0.1214,-0.1258,-0.1287,-0.1285,-0.1299,-0.1298,-0.1303,-0.1216,-0.1201,-0.13,-0.13,-0.13,-0.13,-0.13,-0.13,-0.0869,-0.0928,-0.0932,-0.1003,-0.1019,-0.1069,-0.1088,-0.1114,-0.1136,-0.1197,-0.1233,-0.1246,-0.1271,-0.1317,-0.1358,-0.1363,-0.1381,-0.1397,-0.14,-0.132,-0.1309,-0.1299,-0.1285,-0.14,-0.14,-0.1484,-0.1485,-0.1485]},{"header":{"parameterUnit":"m.s-1","parameterCategory":1,"la1":30.2991,"la2":30.254,"lo1":-89.0895,"lo2":-89.0444,"dy":0.0017,"dx":0.0017,"nx":28,"ny":28,"refTime":"2025-04-08T09:00:00:Z","depth":0,"parameterNumber":3,"parameterNumberName":"V-component_of_WINDS"},"data":[0,0,0,0,0,0,0,0,0,0,0,0,0,0,0,0,0,0,0,0,0,0,0,0,0,0,0,0,0,0,0,0,0,0,0,0,0,0,0,0,0,0,0,0,0,0,0,0,0,0,0,0,0,0,0,0,0,0,-4.3999,-4.4,0,-4.4138,-4.414,-4.4142,-4.4086,-4.4082,-4.4079,-4.4076,-4.4216,-4.4222,-4.4229,0,0,0,0,0,0,0,0,0,0,0,0,0,-4.368,-4.3686,-4.3999,-4.4001,-4.4002,-4.4138,-4.414,-4.4142,-4.4086,-4.4082,-4.4078,-4.4075,-4.4213,-4.4221,-4.423,0,0,0,0,0,0,0,0,0,0,0,0,0,-4.3819,-4.3688,-4.3998,-4.3991,-4.3992,-4.4138,-4.414,-4.4142,-4.4087,-4.4082,-4.4077,-4.4073,-4.4211,-4.4221,-4.4231,-4.4391,0,0,-4.4262,-4.4266,0,0,0,0,0,0,0,0,-4.3811,-4.3831,-4.399,-4.3992,-4.3993,-4.409,-4.4079,-4.4226,-4.4088,-4.4051,-4.4076,-4.407,-4.4177,-4.419,-4.4227,-4.4398,-4.4404,-4.4263,-4.4269,-4.4273,-4.4276,0,0,0,0,0,0,0,-4.3802,-4.3824,-4.4054,-4.3993,-4.3994,-4.3979,-4.3994,-4.4106,-4.414,-4.4054,-4.405,-4.4067,-4.4177,-4.4217,-4.423,-4.4406,-4.4262,-4.4271,-4.4278,-4.4281,-4.4714,-4.4719,0,0,0,0,0,0,-4.3792,-4.3817,-4.4049,-4.4058,-4.3888,-4.3989,-4.4005,-4.4063,-4.4138,-4.4145,-4.4071,-4.4064,-4.4202,-4.4218,-4.4234,-4.4427,-4.4273,-4.4282,-4.4288,-4.4709,-4.4715,-4.4721,0,0,0,0,0,0,-4.3786,-4.3813,-4.4044,-4.3937,-4.3965,-4.4,-4.4066,-4.4069,-4.4109,-4.4152,-4.4157,-4.4107,-4.4199,-4.422,-4.4353,-4.4431,-4.4287,-4.4296,-4.4702,-4.4711,-4.4718,-4.4814,0,0,0,0,0,0,-4.3777,-4.3811,-4.3874,-4.3938,-4.3971,-4.4161,-4.4071,-4.4075,-4.4127,-4.4119,-4.4186,-4.4193,-4.4197,-4.4338,-4.4363,-4.4442,-4.4304,-4.4696,-4.4706,-4.4716,-4.4804,-4.4824,-4.4841,0,0,0,0,0,-4.3765,-4.3895,-4.3877,-4.3906,-4.405,-4.4166,-4.4184,-4.4188,-4.4134,-4.4196,-4.4223,-4.4191,-4.4418,-4.4352,-4.4379,-4.4463,-4.4691,-4.4703,-4.4715,-4.4795,-4.482,-4.4841,0,0,0,0,0,0,-4.3838,-4.3903,-4.3885,-4.4039,-4.4098,-4.4156,-4.4235,-4.4214,-4.4288,-4.4277,-4.4277,-4.4293,-4.4429,-4.4459,-4.4384,-4.4622,-4.4546,-4.4564,-4.4598,-4.4622,-4.464,-4.463,-4.4313,0,0,0,0,0,-4.3872,-4.3962,-4.4014,-4.4145,-4.4175,-4.4201,-4.4251,-4.4249,-4.4309,-4.4333,-4.437,-4.4429,-4.4513,-4.4569,-4.4649,-4.4807,-4.4821,-4.4878,-4.4897,-4.4913,-4.4928,-4.5013,-4.5039,-4.4761,-4.4761,-4.4761,0,0,-4.3943,-4.399,-4.4047,-4.4161,-4.4206,-4.4298,-4.4222,-4.4323,-4.439,-4.4348,-4.4476,-4.4505,-4.457,-4.4716,-4.4782,-4.4745,-4.5008,-4.4928,-4.494,-4.4948,-4.5028,-4.5055,-4.5078,-4.4769,-4.4768,-4.4767,0,0,-4.412,-4.4165,-4.4278,-4.4325,-4.4394,-4.441,-4.4437,-4.45,-4.4518,-4.4646,-4.4616,-4.4696,-4.4842,-4.4889,-4.4932,-4.5126,-4.5098,-4.5152,-4.5251,-4.5333,-4.5355,-4.5375,-4.5443,-4.5468,-4.5167,-4.5168,-4.5168,0,-4.4199,-4.4338,-4.4339,-4.4443,-4.4493,-4.4459,-4.4574,-4.4619,-4.471,-4.4745,-4.4703,-4.4885,-4.4926,-4.5083,-4.513,-4.5166,-4.5196,-4.5144,-4.5352,-4.5372,-4.539,-4.5455,-4.5481,-4.5174,-4.5173,-4.5172,-4.5172,0,-4.4432,-4.4528,-4.4612,-4.4702,-4.4762,-4.487,-4.4887,-4.4946,-4.4938,-4.4958,-4.5088,-4.5137,-4.5226,-4.5262,-4.5255,-4.5417,-4.5392,-4.5351,-4.5275,-4.5422,-4.5483,-4.5508,-4.5182,-4.518,-4.5178,-4.5177,0,0,-4.4659,-4.4748,-4.4779,-4.4819,-4.4892,-4.4966,-4.5072,-4.516,-4.5211,-4.5275,-4.5364,-4.5487,-4.545,-4.5499,-4.5496,-4.5569,-4.5718,-4.5519,-4.552,-4.5554,-4.5899,-4.5929,-4.5958,-4.57,-4.5705,-4.5708,-4.5893,0,-4.4841,-4.5028,-4.5032,-4.5204,-4.5292,-4.5261,-4.5353,-4.5407,-4.5428,-4.5505,-4.5527,-4.5615,-4.5559,-4.5588,-4.5659,-4.5685,-4.5787,-4.5672,-4.5781,-4.5785,-4.5766,-4.599,-4.6023,-4.6195,-4.5917,-4.5921,-4.5924,0,-4.5079,-4.5151,-4.5332,-4.5392,-4.5429,-4.5512,-4.5592,-4.5667,-4.5727,-4.5737,-4.5792,-4.5778,-4.5884,-4.5805,-4.5951,-4.5872,-4.5916,-4.5936,-4.5942,-4.5953,-4.5863,-4.6006,-4.625,-4.6276,-4.5962,-4.5959,-4.5956,0,-4.5226,-4.5368,-4.5495,-4.553,-4.5603,-4.5662,-4.5695,-4.575,-4.5803,-4.5872,-4.5906,-4.5987,-4.6031,-4.6093,-4.6101,-4.6042,-4.6248,-4.6169,-4.6258,-4.6258,-4.6303,-4.63,-4.6557,-4.6332,-4.6331,-4.6331,-4.633,0,-4.5429,-4.554,-4.5562,-4.5639,-4.5763,-4.5765,-4.5887,-4.5915,-4.5964,-4.6046,-4.6023,-4.6099,-4.6105,-4.6183,-4.619,-4.6309,-4.6329,-4.6339,-4.634,-4.6342,-4.634,-4.6371,-4.6359,-4.6338,-4.6336,-4.6335,-4.6334,0,-4.5614,-4.5633,-4.5769,-4.5827,-4.5844,-4.5932,-4.5981,-4.6055,-4.6073,-4.6176,-4.62,-4.6229,-4.632,-4.6333,-4.644,-4.6444,-4.6587,-4.6575,-4.6567,-4.6566,-4.6654,-4.6645,-4.694,-4.6978,-4.6728,-4.673,-4.6732,0,-4.5743,-4.5828,-4.5895,-4.5949,-4.5985,-4.6071,-4.6125,-4.613,-4.6186,-4.626,-4.6325,-4.6413,-4.6484,-4.6631,-4.666,-4.6741,-4.673,-4.6828,-4.6742,-4.6741,-4.6731,-4.6726,-4.6734,-4.6844,-4.6847,-4.6849,-4.6851,0,-4.5969,-4.5974,-4.6052,-4.6134,-4.6199,-4.6263,-4.6324,-4.6368,-4.6381,-4.6445,-4.6538,-4.6593,-4.6702,-4.679,-4.687,-4.6901,-4.6879,-4.6878,-4.6902,-4.6905,-4.6897,-4.6902,-4.6612,-4.6871,-4.6869,-4.6867,-4.6866,-4.6866,-4.613,-4.6203,-4.6262,-4.635,-4.6396,-4.6454,-4.6525,-4.6553,-4.6631,-4.672,-4.6718,-4.682,-4.6876,-4.6981,-4.7019,-4.7097,-4.7066,-4.7102,-4.7111,-4.712,-4.7128,-4.6885,-4.7112,-4.7111,-4.7111,-4.711,-4.711,0,-4.6354,-4.639,-4.6471,-4.6557,-4.6626,-4.6599,-4.6664,-4.6723,-4.6813,-4.6868,-4.6939,-4.7045,-4.713,-4.7166,-4.7249,-4.7305,-4.7296,-4.7326,-4.7322,-4.733,-4.7152,-4.7122,-4.7332,-4.7332,-4.7332,-4.7332,-4.7332,-4.7332,-4.6479,-4.6603,-4.6614,-4.676,-4.6794,-4.6895,-4.6935,-4.6987,-4.7031,-4.7151,-4.7222,-4.7245,-4.7291,-4.7377,-4.7453,-4.7461,-4.7493,-4.7528,-4.7531,-4.7365,-4.7342,-4.7321,-4.7293,-4.7535,-4.7535,-4.7702,-4.7703,-4.7705]}]]